This is the latest recevied weather packets stored in our database for station/object KP4OZ. If no packets are shown the sender has not sent any weather packets the latest 1 day(s).
| Time | Temp. | Humidity | Pressure | Rain* | Wind** | Luminosity | Snow |
|---|---|---|---|---|---|---|---|
| 1778032710 | 27.78° C | 75% | 1018.1 hPa | 0 mm | 2.68 m/s, 129° | - | - |
| 1778032407 | 27.78° C | 75% | 1018.1 hPa | 0 mm | 1.79 m/s, 122° | - | - |
| 1778032104 | 27.78° C | 75% | 1018 hPa | 0 mm | 0.89 m/s, 141° | - | - |
| 1778031801 | 27.78° C | 74% | 1018.1 hPa | 0 mm | 1.79 m/s, 140° | - | - |
| 1778031497 | 27.78° C | 74% | 1018.1 hPa | 0 mm | 1.79 m/s, 112° | - | - |
| 1778031195 | 27.78° C | 74% | 1018 hPa | 0 mm | 1.34 m/s, 123° | - | - |
| 1778030891 | 27.78° C | 74% | 1017.9 hPa | 0 mm | 1.34 m/s, 111° | - | - |
| 1778030588 | 27.78° C | 73% | 1018 hPa | 0 mm | 0.45 m/s, 293° | - | - |
| 1778030285 | 27.78° C | 73% | 1017.9 hPa | 0 mm | 0.89 m/s, 170° | - | - |
| 1778029982 | 27.78° C | 73% | 1017.8 hPa | 0 mm | 1.34 m/s, 176° | - | - |
| 1778029680 | 27.78° C | 72% | 1018 hPa | 0 mm | 2.24 m/s, 122° | - | - |
| 1778029377 | 28.33° C | 72% | 1017.9 hPa | 0 mm | 1.79 m/s, 179° | - | - |
| 1778029074 | 28.33° C | 71% | 1017.9 hPa | 0 mm | 0.89 m/s, 117° | - | - |
| 1778028771 | 28.33° C | 70% | 1017.9 hPa | 0 mm | 0.89 m/s, 110° | - | - |
| 1778028467 | 28.33° C | 70% | 1017.6 hPa | 0 mm | 0.45 m/s, 198° | - | - |
| 1778028165 | 28.33° C | 69% | 1017.8 hPa | 0 mm | 0.89 m/s, 202° | - | - |
| 1778027860 | 28.33° C | 69% | 1017.5 hPa | 0 mm | 1.79 m/s, 136° | - | - |
| 1778027557 | 28.33° C | 69% | 1017.7 hPa | 0 mm | 0.89 m/s, 148° | - | - |
| 1778027253 | 28.33° C | 68% | 1017.5 hPa | 0 mm | 3.58 m/s, 158° | - | - |
| 1778026949 | 28.33° C | 68% | 1017.4 hPa | 0 mm | 1.34 m/s, 181° | - | - |
| 1778026645 | 28.33° C | 68% | 1017.7 hPa | 0 mm | 0.45 m/s, 2° | - | - |
| 1778026343 | 28.33° C | 67% | 1017.3 hPa | 0 mm | 0.89 m/s, 175° | - | - |
| 1778026040 | 28.89° C | 67% | 1017.4 hPa | 0 mm | 1.79 m/s, 154° | - | - |
| 1778025737 | 28.89° C | 67% | 1017.5 hPa | 0 mm | 1.79 m/s, 164° | - | - |
| 1778025434 | 28.89° C | 67% | 1017.4 hPa | 0 mm | 0.89 m/s, 193° | - | - |
* Rain latest hour (hover to see other rain measurements)
** Current wind speed in m/s (hover to see current wind gust speed)